www.pogodaiklimat.ru

Погода и климат >> Архив погоды >> Мозамбик >> Beira


ПОГОДА в Beira

  • Прогноз погоды в Beira
  • Монитор погоды в Beira
  • Климат города

АРХИВ ПОГОДЫ в Beira

Время (UTC), дата Ветер
(напр.,м/с)
 
Видим.   Явления Облачность Т
(С)
Тd
(С)
f
(%)
Тe
(С)
Тes
(С)
Комфортность P
(гПа)
Po
(гПа)
Тmin
(С)
Tmax
(С)
R
(мм)
R24
(мм)
S
(см)
09 14.10 С 7 25 км 6/6 300 м
[Cu med, cong]
+27.4 +19.6 62 +33 +36 очень
душно
1020.5 1021.0
12 14.10 В 7 25 км 4/4 300 м
[Cu med, cong]
+28.4 +19.4 58 +34 +37 очень
душно
1017.6 1018.0
15 14.10 С 6 25 км 3/3 300 м
[Cu med, cong]
+26.6 +20.1 68 +33 +33 очень
душно
1016.9 1017.0
18 14.10 С 3 25 км 3/3 300 м
[Cu med, cong]
+23.2 +20.0 82 +30 +30 очень
душно
1017.6 1018.0 +28.5
21 14.10 С 3 20 км ясно +21.8 +19.2 85 +27 +27 душно 1017.4 1017.0
03 15.10 С 2 20 км 3/3 300 м
[Cu med, cong]
+19.4 +17.1 87 +22 +22 комфорт 1015.7 1016.0
06 15.10 С 2 15 км 8/8 300 м
[Cu Sc]
+23.3 +18.5 74 +29 +31 душно 1017.6 1018.0 +18.8
12 15.10 С 8 30 км ясно +28.4 +19.4 58 +34 +37 очень
душно
1012.1 1012.0
15 15.10 С 8 20 км 1/1 600 м
[Cu med, cong]
+26.4 +20.2 69 +33 +33 очень
душно
1011.3 1011.0
18 15.10 СВ 4 20 км 1/1 300 м
[Cu hum]
+23.4 +20.0 81 +30 +30 очень
душно
1012.1 1012.0 +28.6
21 15.10 СВ 5 20 км 1/1 600 м
[Cu med, cong]
+22.8 +20.2 85 +29 +29 очень
душно
1011.5 1012.0
00 16.10 штиль 0 15 км ясно +20.4 +18.2 87 +24 +24 комфорт 1009.3 1009.0
03 16.10 СВ 3 15 км 3/3 600 м
[Cu med, cong]
+18.6 +17.5 93 +20 +20 1009.2 1009.0
06 16.10 СВ 5 30 км ясно +27.0 +19.9 65 +33 +37 очень
душно
1010.7 1011.0 +18.6
09 16.10 СВ 3 30 км ясно +32.5 +19.1 45 +38 +57 опасность
солнечного
удара
1009.8 1010.0
12 16.10 С 6 30 км ясно +31.1 +21.3 56 +39 +45 очень
душно
1007.5 1008.0
21 16.10 СВ 5 25 км ясно +22.4 +20.5 89 +29 +29 очень
душно
1008.2 1008.0
00 17.10 С 5 15 км ясно +20.4 +18.4 88 +24 +24 комфорт 1007.0 1007.0
03 17.10 СВ 2 400 м туман 3/3 600 м
[Sc]
+19.2 +18.9 98 +22 +22 комфорт 1007.0 1007.0
06 17.10 С 4 5000 м дымка {туман} ясно +24.4 +19.6 75 +30 +35 очень
душно
1008.0 1008.0 +18.5
09 17.10 С 4 5000 м мгла ясно +36.6 +22.3 44 +45 +61 опасность
перегрева
1005.3 1005.0
18 17.10 СВ 5 10 км ясно +27.6 +22.5 74 +36 +36 очень
душно
1003.8 1004.0 +36.7
06 18.10 С 7 10 км 9/9 300 м
[Cu Sc]
+26.6 +23.0 81 +36 +36 очень
душно
1013.3 1013.0 +23.5
09 18.10 СВ 9 20 км 10/10 300 м
[Cu Sc]
+26.6 +23.1 81 +36 +36 очень
душно
1014.6 1015.0
12 18.10 СВ 10 20 км 10/6 300 м
[Cu Sc Ac As]
+25.6 +21.7 79 +33 +33 очень
душно
1013.6 1014.0 0.2
15 18.10 С 8 20 км 10/6 300 м
[Cu Sc Ac As]
+25.2 +19.3 70 +30 +30 душно 1014.0 1014.0
18 18.10 С 9 15 км 8/4 300 м
[Cu med, cong Ac As]
+24.6 +19.4 73 +30 +30 очень
душно
1015.2 1015.0 +27.8 0.2
21 18.10 ЮВ 6 15 км 9/9 300 м
[Cu Sc]
+24.4 +19.6 75 +30 +30 очень
душно
1015.6 1016.0
00 19.10 В 5 15 км 9/9 300 м
[Cu Sc]
+24.0 +19.7 77 +29 +29 душно 1013.6 1014.0
03 19.10 ЮВ 3 15 км в посл. час морось 10/10 300 м
[Cu Sc]
+23.8 +22.6 93 +31 +31 очень
душно
1013.8 1014.0
06 19.10 СВ 2 9000 м слабая морось 10/10 300 м
[Cu Sc]
+24.6 +23.6 94 +33 +33 очень
душно
1014.8 1015.0 +22.5 2
09 19.10 ЮЗ 2 10 км в посл. час морось 10/6 300 м
[Cu Sc Ac As]
+24.6 +23.7 95 +33 +36 очень
душно
1014.1 1014.0
12 19.10 С 6 15 км 9/5 300 м
[Cu Sc Ac As]
+26.3 +23.3 84 +36 +37 очень
душно
1011.5 1012.0 2
15 19.10 С 6 15 км 9/5 300 м
[Cu Sc Ac As]
+26.8 +23.0 80 +36 +36 очень
душно
1010.5 1011.0
06 20.10 В 2 15 км 10/10 200 м
[Cu med, cong]
+25.4 +23.6 90 +35 +35 очень
душно
1015.0 1015.0 +23.2 2
09 20.10 В 5 20 км 8/8 300 м
[Cu Sc]
+28.6 +23.8 75 +39 +42 очень
душно
1014.1 1014.0
12 20.10 В 7 25 км 9/9 300 м
[Cu med, cong]
+27.4 +24.2 83 +38 +39 очень
душно
1012.8 1013.0
18 20.10 В 6 20 км 9/9 300 м
[Cu Sc]
+25.8 +24.6 93 +36 +36 очень
душно
1015.3 1015.0 +28.8
00 21.10 ЮВ 2 15 км 6/6 300 м
[Cu med, cong]
+23.8 +22.6 93 +31 +31 очень
душно
1015.8 1016.0
03 21.10 ЮВ 2 15 км 8/8 300 м
[Cu Sc]
+25.4 +23.6 90 +35 +35 очень
душно
1016.7 1017.0
06 21.10 Ю 5 20 км 9/9 300 м
[Cu Sc]
+27.4 +25.4 89 +40 +41 очень
душно
1019.0 1019.0 +23.8

 

Местоположение метеостанции Beira (Мозамбик): широта -19.80 долгота 34.90 высота над уровнем моря 16 м.

В архиве по умолчанию представлена погода в Beira за последнюю неделю. Архивные данные за месяц целиком и за предыдущие месяцы, начиная с января 2011 года, Вы можете получить, выбрав интересующий диапазон дат из раскрывающегося списка и нажав кнопку "Ввод!".

Внимание! Время в таблицах - всемирное. Для получения местного времени необходимо прибавить поправку, которая в Beira равна 2 ч.

Смотрите также архив погоды в соседних городах и на ближайших метеорологических станциях:

Погода в Chimoio (Мозамбик) (168 км)
Погода в Caia (Мозамбик) (224 км)
Погода в Chipinge (Зимбабве) (243 км)
Погода в Mukandi (Зимбабве) (246 км)
Погода в Vilanculos (Мозамбик) (249 км)
Погода в Catandica (Мозамбик) (265 км)
Погода в Massangena (Мозамбик) (280 км)
Погода в Wyanga (Зимбабве) (282 км)
Погода в Quelimane (Мозамбик) (298 км)
Погода в Rusape (Зимбабве) (323 км)

Пояснения к столбцам:

Ветер - указаны скорость ветра в м/с - средняя за 10 мин, порывы в срок и между сроками (в фигурных скобках) и направление, откуда дует ветер: С - северный, СВ - северо-восточный, В - восточный, ЮВ - юго-восточный, Ю - южный, ЮЗ - юго-западный, З - западный, СЗ - северо-западный.
Видимость - горизонтальная дальность видимости в метрах или километрах. При видимости от 1 до 10 км при отсутствии осадков обычно наблюдается дымка, при ухудшении видимости до 1 км и менее - туман. В сухую погоду видимость может ухудшаться дымом, пылью или мглою.
Явления - указаны атмосферные явления, наблюдавшиеся в срок или в последний час перед сроком; фигурными скобками обозначены явления, наблюдавшиеся между сроками (за 1-3 часа до срока); квадратными скобками обозначены град или гололедные отложения с указанием их диаметра в мм.
Облачность - указаны через наклонную черту общая и нижняя облачность в баллах и высота нижней границы облаков в метрах; квадратными скобками обозначены формы облаков: Ci - перистые, Cs - перисто-слоистые, Cc - перисто-кучевые, Ac - высококучевые, As - высокослоистые, Sc - слоисто-кучевые, Ns - слоисто-дождевые, Cu - кучевые, Cb - кучево-дождевые. Подробнее классификацию облаков см. в Атласе облаков (PDF).
T - Температура воздуха - температура, измеренная на высоте 2 м над землей.
Td - Температура точки росы - температура, при понижении до которой содержащийся в воздухе водяной пар достигнет насыщения.
f - Относительная влажность воздуха - влажноcть воздуха, измеренная на высоте 2 м над землей.
Te - Эффективная температура - температура, которую ощущает одетый по сезону человек в тени. Характеристика душности погоды. При расчете учитывается влияние влажности воздуха и скорости ветра на теплоощущения человека.
Tes - Эффективная температура на солнце - температура, которую ощущает человек, с поправкой на солнечный нагрев. Характеристика знойности погоды. Зависит от высоты солнца над горизонтом, облачности и скорости ветра. Ночью, в пасмурную погоду, а также при ветре 12 м/с и более поправка равна нулю.
P - Атмосферное давление - приведенное к уровню моря атмосферное давление.
Po - Атмосферное давление - измеренное на уровне метеостанции атмосферное давление.
Tmin - Минимальная температура - минимум температуры воздуха на высоте 2 м над землей.
Tmax - Максимальная температура - максимум температуры воздуха на высоте 2 м над землей.
R - Количество осадков - Количество выпавших осадков за период времени, мм. При наведении курсора мыши на число - период времени, за который выпало указанное количество осадков.
R24 - Количество осадков - Количество выпавших осадков за 24 часа, мм.
S - Снежный покров - Высота снежного покрова, см. При наведении курсора мыши на число - состояние снежного покрова и степень покрытия местности в баллах.